Preview of NWS' New Version of Forecast
This preview is not operational and should not be used for support decisions.

Regional Weather Roundup (RWR)

Issued by National Weather Service (NWS)

                            
000
ASUS43 KLSX 211607
RWRMO 

WEATHER SUMMARY FOR MISSOURI
NATIONAL WEATHER SERVICE SPRINGFIELD MO
1100 AM CDT SUN JUL 21 2019

NOTE: "FAIR" INDICATES FEW OR NO CLOUDS BELOW 12,000 FEET WITH NO
       SIGNIFICANT WEATHER AND/OR OBSTRUCTIONS TO VISIBILITY.
       CURRENT SKY AND/OR WEATHER CONDITIONS ARE NOT AVAILABLE FOR
       CHILLICOTHE AND FARMINGTON.

MOZ001>031-035>038-043-044-053-054-211700-
...NORTHERN AND WESTERN MISSOURI...
  
CITY           SKY/WX    TMP DP  RH WIND       PRES   REMARKS
KANSAS CTY INT MOSUNNY   80  72  76 E3        29.97S                  
KANSAS C DTWN  SUNNY     80  71  74 E6        29.95S                  
LEE'S SUMMIT   MOSUNNY   78  71  79 E13       29.99R                  
ST JOSEPH      PTSUNNY   75  69  81 N14       30.01R                  
CHILLICOTHE      N/A     76  70  82 NE6       30.02R                  
KIRKSVILLE     MOSUNNY   80  70  71 N10       30.02R                  
     
$$
MOZ066>068-077>081-088>096-101>105-211700-
...SOUTHWEST MISSOURI...
  
CITY           SKY/WX    TMP DP  RH WIND       PRES   REMARKS
SPRINGFIELD    SUNNY     85  73  67 CALM      29.99S HX  91           
JOPLIN         SUNNY     87  73  62 S12       29.96F HX  94           
BRANSON        PTSUNNY   86  73  66 W7        30.02S HX  93           
               
$$
MOZ032>034-039>042-045>050-055>058-069>072-211700-
...CENTRAL MISSOURI...  
  
CITY           SKY/WX    TMP DP  RH WIND       PRES   REMARKS
COLUMBIA       PTSUNNY   78  70  76 NE9       30.01S                  
ROLLA          SUNNY     85  69  58 NE6       30.01S                  
SEDALIA        MOSUNNY   74  71  91 E13G21    30.02S                  
WHITEMAN AFB   PTSUNNY   75  71  89 E14G20    29.96                   
OSAGE BEACH    SUNNY     83  71  67 NE12      30.00S                  
               
$$
MOZ051-052-059>065-211700-
...EAST CENTRAL MISSOURI...
  
CITY           SKY/WX    TMP DP  RH WIND       PRES   REMARKS
ST LOUIS INTL  PTSUNNY   87  72  60 W5        29.96S HX  93           
SPIRIT OF STL  SUNNY     86  72  62 N7        29.95F HX  92           
ST CHARLES       N/A    N/A N/A N/A MISG      29.94F                  
                   
$$
MOZ072>076-082>087-097>100-106>115-211700-
...SOUTH CENTRAL AND SOUTHEAST MISSOURI...
  
CITY           SKY/WX    TMP DP  RH WIND       PRES   REMARKS
CAPE GIRARDEAU FAIR      86  77  74 SW7       29.95S HX  97           
FARMINGTON     PTSUNNY   84  75  74 VRB6      29.99F HX  92           
POPLAR BLUFF   FAIR      87  80  79 S9        29.96S HX 103           
WEST PLAINS    SUNNY     86  74  67 W6        30.02S HX  94           
                                       
$$